Preview of NWS' New Version of Forecast
This preview is not operational and should not be used for support decisions.
Latest weather observations around

Kenai, Kenai Municipal Airport (PAEN)

Using International System of Units (Switch to English Units)
Date/ Time (AKDT) Wind (kph) Vis. (km) Weather Sky Cond. Temp (°C) Rel. Humidity Wind Chill (°C) Heat Index (°C) Pressure Precip. (cm)
Air Dwpt 6 hour Altimeter (hPa) Sea level (hPa) 1 hr 3 hr 6 hr
Max Min
Aug 18 02:53 N 17 16.09 Clear CLR 14 3     49%     1021 1021.2      
Aug 18 01:53 N 28 16.09 Clear CLR 15 2     42%     1021 1021      
Aug 18 00:53 N 32 16.09 Clear and Windy CLR 16 2     38%     1020.7 1020.9      
Aug 17 23:53 N 32 16.09 Clear and Windy CLR 17 2     35%     1021 1021      
Aug 17 22:53   16.09 Clear CLR 18 2     34%     1021 1021.1      
Aug 17 21:53 N 28 16.09 Clear CLR 18 3     36%     1021 1021.1      
Aug 17 20:53 N 28 16.09 Clear CLR 20 2     31%     1021.3 1021.3      
Aug 17 19:53 N 32 16.09 Clear and Windy CLR 21 2     28%     1021.3 1021.3      
Aug 17 18:53 N 39 16.09 Clear and Windy CLR 22 1     25%   21 1021.3 1021.5      
Aug 17 17:53   16.09 Clear CLR 23 2     26%   22 1021.7 1021.7      
Aug 17 16:53   16.09 Clear CLR 22 3     29%   21 1022 1022      
Aug 17 15:53   16.09 Clear CLR 22 3     28%   21 1022.4 1022.3      
Aug 17 14:53   16.09 Clear CLR 22 3     29%   21 1022.4 1022.5      
Aug 17 13:53   16.09 Clear CLR 21 3     31%     1023 1023      
Aug 17 12:53   16.09 Clear CLR 20 3     33%     1023.4 1023.5      
Aug 17 11:53   16.09 Clear CLR 19 3     34%     1023.4 1023.4      
Aug 17 10:53   16.09 Clear CLR 18 2     34%     1023 1023.2      
Aug 17 09:53   16.09 Clear CLR 18 2     34%     1022.7 1022.8      
Aug 17 08:53   16.09 Clear CLR 18 1     33%     1022.4 1022.4      
Aug 17 07:53 N 32 16.09 Clear and Windy CLR 17 2     36%     1022 1022.2      
Aug 17 06:53 N 26 16.09 Clear CLR 16 2     38%     1021.3 1021.5      
Aug 17 05:53   16.09 Clear CLR 17 1     33%     1020.7 1020.6      
Aug 17 04:53   16.09 Clear CLR 17 2     38%     1020 1020      
Aug 17 03:53 E 9 16.09 Clear CLR 12 9     86%     1019.3 1019.4      
Aug 17 02:53 N 8 16.09 Clear CLR 12 10     86%     1019.3 1019.2      
Aug 17 01:53 Calm 16.09 Clear CLR 13 11     84%     1018.3 1018.3      
Aug 17 00:53 NE 8 16.09 Clear CLR 14 11     81%     1017.6 1017.8      
Aug 16 23:53 N 13 16.09 Clear CLR 14 11     81%     1018.3 1018.2      
Aug 16 22:53 W 5 16.09 Clear CLR 17 11     70%     1018 1018.2      
Aug 16 21:53 SSW 18 16.09 Clear CLR 18 11     65%     1018.3 1018.5      
Aug 16 20:53 SSW 21 16.09 Clear CLR 19 11     59%     1018.6 1018.8      
Aug 16 19:53 SSW 21 16.09 Clear CLR 20 11     57%     1018.6 1018.8      
Aug 16 18:53 SSW 18 16.09 Clear CLR 19 12     65%     1019 1018.9      
Aug 16 17:53 SSW 21 16.09 Clear CLR 22 12     53%   21 1020 1020      
Aug 16 16:53 SW 17 16.09 Clear CLR 21 11     53%     1020.7 1020.8      
Aug 16 15:53 SW 22 16.09 Clear CLR 23 11     46%   22 1021.7 1021.8      
Aug 16 14:53 SW 22 16.09 Clear CLR 23 10     44%   22 1022 1022.2      
Aug 16 13:53 SW 21 16.09 Clear   22 9     44%   22 1022.7 1022.9      
Aug 16 12:53 SW 22 16.09 Clear CLR 22 10     47%   21 1023 1023      
Aug 16 11:53 SSW 26 16.09 Clear CLR 21 11     51%     1023.7 1023.7      
Aug 16 10:53   16.09 Clear CLR 20 11     55%     1023.7 1023.9      
Aug 16 09:53 SSW 22 16.09 Clear CLR 19 11     59%     1024.1 1024.1      
Aug 16 08:53 S 15 16.09 Clear CLR 17 12     70%     1024.1 1024.1      
Aug 16 07:53 SSW 13 16.09 Clear CLR 16 12     78%     1023.7 1023.9      
Aug 16 06:53 Calm 16.09 Clear CLR 10 8     89%     1024.4 1024.4      
Aug 16 05:53 Calm 16.09 Clear CLR 9 8     90%     1024.4 1024.4      
Aug 16 04:53 Calm 16.09 Clear CLR 11 9     86%     1024.4 1024.4      
Aug 16 03:53 Calm 16.09 Clear CLR 12 10     89%     1024.4 1024.5      
Aug 16 02:53 Calm 16.09 Clear CLR 12 11     90%     1024.4 1024.6      
Aug 16 01:53 Calm 16.09 Clear CLR 13 11     86%     1024.7 1024.7      
Aug 16 00:53 N 5 16.09 Clear CLR 13 11     84%     1024.4 1024.5      
Aug 15 23:53 SW 9 16.09 Clear CLR 16 13     83%     1024.4 1024.5      
Aug 15 22:53 SSW 5 16.09 Clear CLR 17 12     70%     1024.4 1024.5      
Aug 15 21:53 W 8 16.09 Clear CLR 18 12     70%     1024.4 1024.3      
Aug 15 20:53 SW 5 16.09 Clear CLR 19 12     61%     1024.1 1024.2      
Aug 15 19:53 SSW 11 16.09 Clear CLR 19 12     63%     1024.4 1024.4      
Aug 15 18:53 SW 9 16.09 Clear CLR 20 12     59%     1024.4 1024.6      
Aug 15 17:53 SW 8 16.09 Clear CLR 21 12     57%     1024.7 1024.8      
Aug 15 16:53 WSW 13 16.09 Partly Cloudy SCT110 21 12     57%     1025.1 1025      
Aug 15 15:53 SW 15 16.09 Clear CLR 21 12     59%     1024.7 1025      
Aug 15 14:53 SW 18 16.09 Mostly Clear FEW110 21 12     57%     1024.7 1024.9      
Aug 15 13:53 SSW 15 16.09 Clear CLR 22 13     57%   21 1025.1 1025.1      
Aug 15 12:53 SW 17 16.09 Clear CLR 22 12     55%   21 1024.7 1024.9      
Aug 15 11:53 SW 17 16.09 Clear CLR 22 12     55%   21 1024.4 1024.4      
Aug 15 10:53 SSW 15 16.09 Clear CLR 20 13     63%     1024.4 1024.5      
Aug 15 09:53 SSW 18 16.09 Clear CLR 20 13     65%     1024.1 1024.3      
Aug 15 08:53 S 9 16.09 Clear CLR 18 13     73%     1023.7 1023.8      
Aug 15 07:53 S 11 16.09 Clear CLR 17 13     78%     1023.4 1023.5      
Aug 15 06:53 S 15 16.09 Clear CLR 16 12     78%     1023 1023      
Aug 15 05:53 S 13 16.09 Clear CLR 16 12     78%     1022.7 1022.9      
Aug 15 04:53 S 18 16.09 Clear CLR 17 12     75%     1022.4 1022.3      
Aug 15 03:53 S 17 16.09 Clear CLR 17 12     75%     1022 1022      
Aug 15 02:53 S 13 16.09 Clear CLR 17 12     72%     1022 1022      
Aug 15 01:53 S 18 16.09 Clear CLR 17 12     72%     1021.7 1021.7      
Aug 15 00:53 S 17 16.09 Mostly Cloudy BKN100 18 13     73%     1021.7 1021.8      
Aug 14 23:53 S 13 16.09 Cloudy OVC110 18 13     73%     1021.7 1021.8      
Aug 14 22:53 SSW 11 16.09 Mostly Cloudy BKN120 17 13     75%     1021.7 1021.8      
Aug 14 21:53 SSW 11 16.09 Clear CLR 17 13     80%     1021.7 1021.8      
Aug 14 20:53 SSW 13 16.09 Clear CLR 17 13     75%     1021.7 1021.6      
Aug 14 19:53 SW 11 16.09 Clear CLR 18 13     70%     1021.7 1021.7      
Aug 14 18:53 SW 15 16.09 Clear CLR 19 13     68%     1021.7 1021.7      
Aug 14 17:53 SW 15 16.09 Clear CLR 20 13     65%     1021.7 1021.8      
Aug 14 16:53 SW 13 16.09 Clear CLR 21 13     61%     1021.7 1021.7      
Aug 14 15:53 SW 18 16.09 Clear CLR 20 13     65%     1021.7 1021.9      
May 14 13:53 SSW 22 16.09 Partly Cloudy SCT090 9 3     63% 6   1011.9 1012.1      
May 14 02:53 S 13 16.09 Cloudy OVC110 6 1     70% 3   1008.1 1008.4      
May 13 11:53 N 24 16.09 Mostly Clear FEW030 9 1     58% 6   1011.9 1012.1      
May 13 08:53 NNE 21 16.09 Clear CLR 4 3     89% 0   1015.2 1015.5      
May 13 01:12 N 5 16.09 Clear CLR 2 2     100% 1   1020.7        
May 11 19:53 SSE 24 16.09 Mostly Cloudy BKN085 9 0     52% 6   1013.9 1014.2      
May 11 16:53 S 28 16.09 Mostly Cloudy FEW050 SCT080 BKN095 11 -1     46%     1012.5 1012.6      
May 11 14:53 SW 17 16.09 Cloudy BKN050 OVC070 8 3     73% 5   1011.5 1011.7 0    
Jun 11 10:53 SE 13 16.09 Cloudy OVC080 12 4     61%     1008.8 1009      
Jun 11 09:53 W 8 16.09 Cloudy OVC080 11 6     74%     1008.8 1008.7      
Jun 10 08:53 Calm 4.83 Fog/Mist SCT002 9 9     100%     1008.5 1008.8      
Notice The following observation data may not be complete
Jun 09 13:21   16.09 Light Rain FEW004 OVC095          %         0    
Jun 06 09:53 NNE 24 16.09 Clear CLR 11 7     74%     1009.2 1009.1      
Jun 05 17:53 N 30 16.09 Clear CLR 13 7     69%     1008.5 1008.6      
Jun 05 12:53 Calm 16.09 Light Rain OVC055 8 7     90%     1009.8 1010.1 0 0